Precipitable_Water
0.85 0.85 0.84 0.83 0.81 0.80 0.79 0.77 0.75 0.74 0.73 0.71 0.70 0.69 0.67 0.66 0.64 0.64 0.64 0.61 0.55 0.52 0.50 0.49 0.48 0.47 0.48 0.50 0.49 0.49 0.45 0.38 0.31 0.29 0.34 0.34 0.35 0.42 0.38 0.42 0.39 0.47 0.65 0.68 0.80 0.78 0.78 0.87 0.94 1.18 1.02 1.12 0.99 0.94 1.18 1.13 1.25 1.11 0.98 1.01 0.88 0.95 0.97 0.94 0.96 0.97 1.03 1.01 0.94 1.00 1.03 0.98 0.89 1.02 1.04 1.21 1.18 1.13 1.12 1.25 1.24 1.28 1.45 1.47 1.42 1.41 1.47 1.54
0.82 0.82 0.81 0.80 0.80 0.79 0.78 0.77 0.76 0.75 0.74 0.73 0.72 0.70 0.69 0.68 0.70 0.68 0.65 0.64 0.62 0.57 0.53 0.51 0.49 0.47 0.46 0.46 0.49 0.48 0.44 0.36 0.31 0.31 0.29 0.31 0.39 0.39 0.39 0.35 0.36 0.38 0.57 0.63 0.91 0.83 0.81 0.83 0.92 1.11 0.96 0.93 1.05 0.88 1.15 1.05 1.16 1.02 0.96 1.03 0.98 1.13 1.16 1.24 1.00 1.00 1.04 0.92 0.98 1.03 1.01 1.09 1.03 1.09 1.03 1.07 0.97 1.01 1.05 1.14 1.16 1.17 1.33 1.38 1.38 1.43 1.44 1.48
0.78 0.77 0.77 0.76 0.75 0.76 0.75 0.76 0.76 0.75 0.74 0.73 0.72 0.71 0.71 0.71 0.70 0.70 0.69 0.67 0.65 0.63 0.58 0.54 0.51 0.49 0.47 0.46 0.45 0.45 0.43 0.32 0.34 0.28 0.31 0.38 0.37 0.38 0.38 0.34 0.32 0.39 0.44 0.54 0.93 0.86 0.85 0.87 0.95 1.02 0.92 0.87 0.91 0.86 1.05 1.01 1.08 1.03 0.98 0.92 1.05 1.23 1.25 1.12 1.00 1.00 1.02 0.97 0.95 0.95 1.02 1.12 1.18 1.16 0.97 1.10 1.00 1.00 1.01 1.04 1.08 1.13 1.14 1.22 1.32 1.37 1.40 1.43
0.68 0.68 0.69 0.69 0.68 0.68 0.69 0.70 0.71 0.72 0.72 0.71 0.70 0.71 0.73 0.72 0.73 0.71 0.71 0.69 0.67 0.66 0.64 0.59 0.54 0.51 0.49 0.46 0.45 0.43 0.36 0.35 0.24 0.26 0.38 0.47 0.44 0.43 0.41 0.37 0.32 0.38 0.40 0.59 0.87 0.81 0.87 0.94 0.95 0.90 0.85 0.74 0.91 0.91 0.98 1.00 0.93 1.01 0.91 0.94 1.02 1.39 1.04 0.98 1.04 1.02 1.00 0.97 0.92 0.98 0.98 1.03 1.08 1.23 1.03 1.06 1.04 0.99 1.05 1.10 1.08 1.08 1.10 1.17 1.26 1.34 1.39 1.36
0.59 0.59 0.59 0.59 0.59 0.60 0.61 0.62 0.64 0.64 0.66 0.67 0.67 0.70 0.70 0.72 0.74 0.73 0.72 0.71 0.70 0.67 0.65 0.64 0.60 0.55 0.51 0.48 0.42 0.43 0.34 0.18 0.27 0.48 0.49 0.48 0.45 0.47 0.43 0.38 0.37 0.39 0.41 0.63 0.80 0.76 0.80 0.84 0.90 0.81 0.77 0.65 0.86 0.88 0.90 0.97 0.98 1.01 0.97 0.97 1.18 1.31 1.04 1.16 1.12 1.02 1.02 0.94 0.96 0.90 0.96 1.06 1.21 1.10 1.10 1.10 1.03 1.05 1.06 1.09 1.13 1.20 1.13 1.16 1.25 1.23 1.35 1.31
0.56 0.56 0.55 0.55 0.54 0.54 0.54 0.54 0.54 0.56 0.56 0.59 0.63 0.66 0.68 0.70 0.71 0.72 0.72 0.70 0.69 0.69 0.68 0.67 0.66 0.61 0.55 0.50 0.45 0.37 0.26 0.12 0.41 0.52 0.45 0.42 0.41 0.40 0.38 0.37 0.40 0.42 0.46 0.65 0.63 0.62 0.69 0.75 0.83 0.69 0.62 0.67 0.67 0.77 0.85 0.90 1.07 0.72 0.95 0.93 1.00 1.16 1.11 1.26 1.13 1.07 0.94 1.07 0.96 0.91 1.03 1.03 0.95 1.04 1.06 1.15 1.10 1.07 1.23 1.20 1.24 1.29 1.20 1.19 1.26 1.27 1.25 1.27
0.55 0.54 0.53 0.53 0.52 0.51 0.51 0.50 0.51 0.51 0.53 0.54 0.54 0.58 0.62 0.65 0.68 0.69 0.71 0.72 0.71 0.71 0.71 0.70 0.69 0.66 0.58 0.55 0.43 0.31 0.22 0.19 0.28 0.52 0.48 0.43 0.43 0.39 0.37 0.40 0.44 0.49 0.50 0.56 0.54 0.53 0.60 0.69 0.75 0.66 0.60 0.61 0.66 0.74 0.82 0.85 0.96 0.85 0.77 0.96 0.95 0.98 0.99 1.18 1.18 1.14 1.06 1.02 1.01 1.01 1.00 0.91 0.96 0.86 1.05 1.00 1.11 1.22 1.14 1.16 1.22 1.30 1.25 1.24 1.22 1.24 1.19 1.24
0.52 0.51 0.51 0.51 0.50 0.50 0.50 0.49 0.49 0.50 0.52 0.50 0.49 0.51 0.55 0.58 0.62 0.67 0.70 0.72 0.74 0.74 0.75 0.75 0.73 0.69 0.65 0.50 0.37 0.26 0.20 0.15 0.22 0.45 0.45 0.46 0.45 0.41 0.42 0.46 0.45 0.52 0.51 0.48 0.48 0.45 0.54 0.62 0.66 0.69 0.60 0.59 0.62 0.68 0.79 0.78 0.85 0.84 0.76 0.87 0.98 1.07 1.03 1.08 1.11 1.10 1.09 1.04 1.04 1.03 0.92 0.89 0.89 0.92 0.98 0.96 1.09 1.15 1.17 1.21 1.20 1.24 1.25 1.19 1.22 1.22 1.23 1.24
0.46 0.46 0.46 0.46 0.46 0.48 0.47 0.48 0.50 0.51 0.49 0.48 0.48 0.48 0.50 0.52 0.56 0.63 0.70 0.73 0.75 0.79 0.80 0.80 0.77 0.70 0.67 0.57 0.38 0.24 0.18 0.25 0.26 0.58 0.47 0.43 0.47 0.43 0.47 0.47 0.48 0.51 0.52 0.48 0.47 0.44 0.49 0.55 0.68 0.66 0.56 0.61 0.69 0.64 0.76 0.71 0.70 0.85 0.86 0.85 0.81 0.87 1.00 1.07 1.07 1.05 1.04 1.04 1.02 0.92 0.88 0.89 0.88 0.91 0.84 1.00 1.02 1.10 1.18 1.17 1.20 1.19 1.18 1.13 1.15 1.21 1.22 1.22
0.42 0.42 0.42 0.42 0.43 0.43 0.44 0.46 0.46 0.47 0.47 0.47 0.46 0.46 0.48 0.48 0.51 0.59 0.67 0.74 0.79 0.82 0.84 0.83 0.80 0.72 0.60 0.48 0.38 0.21 0.23 0.27 0.25 0.30 0.48 0.42 0.50 0.49 0.47 0.49 0.45 0.48 0.51 0.48 0.44 0.41 0.44 0.57 0.61 0.69 0.71 0.71 0.70 0.64 0.77 0.72 0.77 0.95 0.92 0.85 0.85 0.90 0.93 1.00 0.97 1.00 1.03 0.99 0.98 0.88 0.86 0.86 0.91 0.80 0.78 0.91 1.06 1.11 1.16 1.18 1.18 1.12 1.08 1.14 1.12 1.14 1.23 1.21
0.40 0.39 0.39 0.39 0.40 0.40 0.40 0.42 0.41 0.41 0.43 0.44 0.43 0.45 0.47 0.48 0.50 0.54 0.66 0.76 0.81 0.83 0.85 0.86 0.83 0.72 0.55 0.49 0.34 0.25 0.32 0.27 0.49 0.47 0.28 0.29 0.35 0.48 0.43 0.46 0.50 0.46 0.50 0.48 0.40 0.40 0.46 0.57 0.64 0.69 0.63 0.66 0.71 0.65 0.72 0.76 0.84 0.90 0.94 0.93 0.88 0.84 0.89 0.94 0.96 0.96 0.98 0.92 0.94 0.90 0.84 0.86 0.87 0.80 0.78 0.94 1.02 1.12 1.12 1.16 1.16 1.14 1.10 1.10 1.13 1.14 1.17 1.22
0.39 0.38 0.38 0.37 0.37 0.37 0.38 0.39 0.38 0.39 0.39 0.38 0.39 0.42 0.45 0.47 0.49 0.53 0.64 0.75 0.81 0.85 0.86 0.86 0.83 0.73 0.61 0.49 0.37 0.34 0.37 0.26 0.40 0.46 0.54 0.48 0.36 0.44 0.47 0.45 0.52 0.48 0.49 0.45 0.40 0.41 0.45 0.50 0.60 0.59 0.50 0.61 0.60 0.71 0.69 0.80 0.84 0.82 0.81 0.68 0.73 0.77 0.73 0.81 0.83 0.90 0.94 0.88 0.88 0.85 0.77 0.72 0.75 0.71 0.79 0.95 1.02 1.12 1.05 1.09 1.17 1.15 1.17 1.14 1.13 1.16 1.15 1.14
0.39 0.38 0.37 0.37 0.36 0.35 0.36 0.36 0.36 0.36 0.34 0.35 0.36 0.39 0.41 0.44 0.47 0.56 0.65 0.71 0.78 0.83 0.87 0.86 0.84 0.77 0.60 0.41 0.42 0.51 0.45 0.44 0.46 0.51 0.57 0.54 0.52 0.55 0.53 0.50 0.55 0.53 0.54 0.49 0.45 0.44 0.44 0.46 0.51 0.50 0.60 0.57 0.48 0.54 0.66 0.71 0.69 0.75 0.74 0.67 0.63 0.63 0.61 0.71 0.78 0.84 0.83 0.84 0.84 0.81 0.57 0.61 0.69 0.77 0.80 0.87 1.00 1.07 1.03 1.08 1.09 1.24 1.14 1.19 1.16 1.15 1.16 1.15
0.38 0.37 0.37 0.37 0.36 0.36 0.36 0.35 0.34 0.33 0.31 0.32 0.34 0.36 0.38 0.41 0.47 0.58 0.64 0.68 0.73 0.77 0.86 0.87 0.85 0.75 0.61 0.45 0.49 0.45 0.48 0.42 0.36 0.44 0.57 0.63 0.57 0.55 0.51 0.55 0.61 0.57 0.61 0.55 0.52 0.49 0.46 0.44 0.45 0.47 0.60 0.57 0.45 0.56 0.57 0.58 0.63 0.56 0.63 0.62 0.52 0.49 0.50 0.65 0.69 0.75 0.73 0.82 0.80 0.77 0.57 0.61 0.67 0.75 0.83 0.90 1.00 1.06 1.03 1.09 1.13 1.23 1.23 1.21 1.18 1.17 1.13 1.14
0.37 0.37 0.37 0.36 0.35 0.35 0.35 0.35 0.33 0.30 0.30 0.30 0.31 0.34 0.36 0.38 0.48 0.58 0.63 0.66 0.70 0.74 0.81 0.89 0.85 0.70 0.53 0.50 0.60 0.58 0.51 0.37 0.30 0.33 0.49 0.56 0.50 0.51 0.54 0.63 0.62 0.58 0.58 0.54 0.54 0.57 0.52 0.46 0.42 0.40 0.43 0.58 0.53 0.48 0.48 0.48 0.50 0.54 0.49 0.44 0.48 0.45 0.48 0.59 0.67 0.71 0.67 0.76 0.78 0.72 0.56 0.61 0.68 0.78 0.86 0.93 1.01 1.06 1.02 1.12 1.08 1.20 1.22 1.27 1.24 1.25 1.16 1.14
0.36 0.36 0.36 0.36 0.35 0.34 0.34 0.33 0.31 0.30 0.30 0.30 0.29 0.31 0.34 0.40 0.49 0.55 0.60 0.64 0.66 0.71 0.77 0.71 0.74 0.69 0.57 0.47 0.55 0.59 0.48 0.37 0.29 0.34 0.44 0.55 0.44 0.39 0.46 0.51 0.57 0.57 0.55 0.51 0.56 0.59 0.55 0.50 0.38 0.39 0.44 0.51 0.41 0.39 0.43 0.44 0.42 0.47 0.43 0.42 0.43 0.45 0.48 0.54 0.63 0.71 0.74 0.73 0.74 0.66 0.57 0.60 0.64 0.81 0.88 0.95 1.05 1.05 1.04 1.13 1.12 1.15 1.21 1.25 1.25 1.32 1.24 1.18
0.37 0.37 0.37 0.36 0.35 0.34 0.32 0.32 0.30 0.29 0.30 0.29 0.30 0.30 0.36 0.42 0.52 0.55 0.60 0.63 0.63 0.73 0.71 0.64 0.74 0.69 0.44 0.52 0.65 0.50 0.40 0.41 0.39 0.31 0.36 0.46 0.40 0.42 0.50 0.50 0.48 0.48 0.51 0.54 0.55 0.58 0.54 0.47 0.45 0.44 0.45 0.40 0.35 0.36 0.34 0.35 0.34 0.37 0.43 0.39 0.44 0.44 0.47 0.47 0.61 0.66 0.67 0.65 0.62 0.63 0.56 0.60 0.67 0.78 0.88 0.98 0.96 0.97 0.95 1.09 1.13 1.12 1.21 1.33 1.30 1.32 1.27 1.22
0.37 0.38 0.38 0.37 0.36 0.34 0.32 0.30 0.30 0.28 0.29 0.30 0.31 0.35 0.39 0.46 0.54 0.62 0.61 0.67 0.71 0.66 0.68 0.73 0.72 0.57 0.47 0.58 0.44 0.42 0.49 0.46 0.38 0.30 0.30 0.41 0.39 0.42 0.49 0.49 0.49 0.52 0.49 0.44 0.51 0.44 0.48 0.40 0.45 0.32 0.34 0.31 0.34 0.29 0.26 0.23 0.29 0.32 0.35 0.36 0.39 0.45 0.48 0.48 0.50 0.58 0.60 0.64 0.62 0.61 0.57 0.59 0.64 0.77 0.88 0.97 0.90 0.88 0.86 0.98 1.15 1.12 1.16 1.26 1.22 1.31 1.33 1.28
0.39 0.38 0.38 0.37 0.37 0.34 0.32 0.31 0.29 0.28 0.30 0.32 0.33 0.40 0.50 0.55 0.57 0.65 0.62 0.66 0.53 0.47 0.34 0.46 0.42 0.31 0.32 0.47 0.56 0.49 0.46 0.49 0.47 0.31 0.27 0.36 0.40 0.41 0.49 0.52 0.48 0.47 0.35 0.31 0.32 0.37 0.44 0.35 0.37 0.30 0.24 0.22 0.27 0.29 0.25 0.28 0.34 0.34 0.37 0.38 0.39 0.39 0.43 0.46 0.57 0.60 0.59 0.58 0.58 0.58 0.56 0.56 0.60 0.64 0.74 0.85 0.91 0.85 0.84 0.91 1.11 1.14 1.15 1.21 1.22 1.27 1.26 1.22
0.39 0.38 0.39 0.38 0.36 0.34 0.31 0.31 0.29 0.29 0.33 0.34 0.30 0.34 0.46 0.30 0.28 0.53 0.52 0.53 0.46 0.40 0.45 0.48 0.51 0.45 0.49 0.50 0.50 0.52 0.55 0.54 0.44 0.39 0.31 0.34 0.38 0.34 0.41 0.43 0.42 0.41 0.30 0.22 0.26 0.26 0.38 0.21 0.21 0.19 0.22 0.25 0.26 0.34 0.32 0.28 0.32 0.36 0.39 0.39 0.38 0.39 0.44 0.49 0.49 0.62 0.62 0.55 0.52 0.56 0.56 0.56 0.57 0.61 0.66 0.72 0.84 0.86 0.81 0.86 0.98 1.09 1.10 1.18 1.21 1.18 1.20 1.34
0.39 0.38 0.38 0.38 0.37 0.33 0.30 0.30 0.29 0.31 0.34 0.38 0.38 0.27 0.19 0.20 0.15 0.15 0.25 0.25 0.25 0.24 0.23 0.25 0.31 0.36 0.42 0.54 0.57 0.48 0.45 0.46 0.48 0.45 0.38 0.33 0.35 0.31 0.32 0.37 0.36 0.28 0.26 0.25 0.25 0.25 0.32 0.19 0.18 0.23 0.24 0.30 0.30 0.31 0.34 0.30 0.28 0.31 0.33 0.34 0.34 0.36 0.37 0.45 0.51 0.56 0.58 0.51 0.51 0.55 0.53 0.53 0.54 0.58 0.60 0.69 0.80 0.85 0.84 0.82 0.91 1.03 1.08 1.13 1.18 1.16 1.24 1.42
0.38 0.38 0.37 0.36 0.37 0.34 0.29 0.29 0.29 0.32 0.35 0.42 0.36 0.25 0.28 0.28 0.31 0.37 0.31 0.17 0.20 0.26 0.27 0.25 0.26 0.28 0.33 0.45 0.56 0.57 0.53 0.43 0.42 0.46 0.48 0.35 0.29 0.25 0.28 0.31 0.30 0.25 0.26 0.25 0.30 0.25 0.24 0.21 0.19 0.26 0.28 0.30 0.34 0.32 0.29 0.27 0.26 0.28 0.29 0.29 0.30 0.31 0.35 0.43 0.47 0.54 0.62 0.55 0.48 0.52 0.50 0.50 0.52 0.53 0.55 0.55 0.61 0.77 0.85 0.83 0.87 1.01 1.09 1.09 1.13 1.20 1.31 1.35
0.40 0.38 0.36 0.36 0.35 0.33 0.30 0.29 0.33 0.32 0.34 0.32 0.29 0.26 0.25 0.32 0.40 0.42 0.37 0.27 0.19 0.21 0.25 0.22 0.19 0.21 0.25 0.34 0.45 0.56 0.46 0.41 0.37 0.43 0.44 0.41 0.29 0.26 0.29 0.29 0.28 0.28 0.27 0.24 0.22 0.22 0.20 0.22 0.26 0.28 0.32 0.29 0.28 0.29 0.26 0.23 0.25 0.25 0.26 0.25 0.25 0.28 0.29 0.32 0.40 0.46 0.56 0.54 0.48 0.50 0.48 0.51 0.54 0.55 0.56 0.58 0.58 0.59 0.77 0.83 0.83 0.93 1.11 1.01 1.05 1.11 1.25 1.31
0.38 0.39 0.37 0.34 0.35 0.32 0.29 0.31 0.35 0.31 0.28 0.32 0.37 0.27 0.28 0.33 0.38 0.39 0.31 0.21 0.16 0.17 0.17 0.18 0.21 0.19 0.20 0.22 0.33 0.43 0.43 0.44 0.43 0.40 0.50 0.43 0.29 0.29 0.31 0.31 0.28 0.29 0.25 0.24 0.22 0.22 0.18 0.24 0.30 0.27 0.29 0.29 0.24 0.23 0.24 0.22 0.18 0.21 0.24 0.23 0.23 0.27 0.30 0.32 0.36 0.41 0.45 0.49 0.49 0.50 0.47 0.47 0.51 0.49 0.52 0.56 0.58 0.57 0.70 0.83 0.80 0.83 1.01 1.15 1.16 1.21 1.23 1.31
0.39 0.37 0.37 0.35 0.32 0.33 0.27 0.34 0.32 0.21 0.28 0.39 0.37 0.30 0.29 0.33 0.36 0.45 0.29 0.25 0.26 0.20 0.28 0.23 0.23 0.24 0.22 0.29 0.32 0.30 0.40 0.47 0.46 0.48 0.51 0.45 0.32 0.28 0.29 0.36 0.32 0.28 0.27 0.28 0.24 0.23 0.24 0.28 0.29 0.24 0.25 0.27 0.23 0.21 0.22 0.22 0.18 0.18 0.18 0.20 0.22 0.25 0.29 0.33 0.36 0.37 0.37 0.35 0.43 0.44 0.37 0.38 0.45 0.48 0.49 0.52 0.54 0.54 0.59 0.75 0.80 0.77 0.83 1.09 1.09 1.15 1.14 1.20
0.40 0.37 0.36 0.37 0.33 0.31 0.28 0.34 0.22 0.24 0.29 0.28 0.27 0.26 0.30 0.34 0.38 0.40 0.37 0.20 0.11 0.13 0.26 0.17 0.26 0.22 0.29 0.24 0.28 0.29 0.36 0.33 0.48 0.49 0.51 0.49 0.39 0.32 0.32 0.34 0.34 0.28 0.29 0.29 0.26 0.24 0.24 0.30 0.28 0.24 0.21 0.23 0.22 0.20 0.22 0.22 0.18 0.17 0.16 0.18 0.20 0.22 0.23 0.26 0.28 0.34 0.31 0.33 0.41 0.43 0.33 0.32 0.42 0.43 0.45 0.47 0.49 0.51 0.54 0.64 0.78 0.80 0.80 0.92 1.00 1.03 1.11 1.12
0.41 0.38 0.37 0.35 0.34 0.34 0.19 0.15 0.22 0.31 0.25 0.21 0.25 0.28 0.30 0.32 0.45 0.39 0.30 0.20 0.15 0.22 0.18 0.27 0.22 0.29 0.30 0.27 0.28 0.30 0.20 0.24 0.45 0.50 0.49 0.55 0.38 0.39 0.29 0.32 0.36 0.34 0.36 0.33 0.30 0.24 0.26 0.28 0.29 0.26 0.23 0.21 0.21 0.19 0.21 0.22 0.20 0.17 0.20 0.19 0.17 0.16 0.18 0.20 0.23 0.26 0.29 0.36 0.38 0.41 0.39 0.31 0.32 0.41 0.46 0.47 0.45 0.49 0.51 0.63 0.77 0.81 0.84 0.87 0.99 1.00 1.12 1.05
0.40 0.38 0.37 0.36 0.32 0.32 0.26 0.27 0.29 0.27 0.27 0.28 0.25 0.28 0.30 0.35 0.40 0.45 0.28 0.10 0.08 0.26 0.23 0.25 0.29 0.40 0.34 0.33 0.32 0.23 0.25 0.38 0.31 0.39 0.49 0.56 0.49 0.39 0.33 0.30 0.31 0.31 0.33 0.31 0.21 0.28 0.28 0.25 0.28 0.26 0.23 0.20 0.18 0.20 0.22 0.25 0.22 0.19 0.18 0.18 0.17 0.15 0.14 0.16 0.19 0.22 0.23 0.25 0.26 0.31 0.36 0.30 0.28 0.36 0.48 0.49 0.44 0.48 0.54 0.71 0.79 0.79 0.85 0.92 0.99 0.94 1.06 1.15
0.39 0.38 0.36 0.35 0.33 0.31 0.39 0.31 0.32 0.33 0.33 0.29 0.26 0.27 0.32 0.37 0.33 0.29 0.24 0.14 0.26 0.23 0.37 0.25 0.39 0.33 0.32 0.35 0.30 0.28 0.28 0.34 0.30 0.38 0.47 0.51 0.53 0.43 0.32 0.32 0.33 0.35 0.33 0.32 0.26 0.29 0.30 0.29 0.28 0.29 0.26 0.21 0.20 0.21 0.23 0.25 0.20 0.20 0.20 0.18 0.18 0.19 0.18 0.15 0.15 0.17 0.20 0.20 0.18 0.24 0.28 0.24 0.24 0.32 0.39 0.44 0.45 0.50 0.53 0.68 0.75 0.84 0.84 0.85 0.88 0.96 1.02 1.07
0.39 0.37 0.37 0.35 0.32 0.36 0.34 0.33 0.37 0.34 0.28 0.28 0.27 0.28 0.30 0.31 0.36 0.20 0.14 0.10 0.19 0.17 0.26 0.30 0.27 0.26 0.30 0.28 0.28 0.29 0.27 0.30 0.33 0.39 0.44 0.41 0.46 0.49 0.43 0.41 0.35 0.34 0.32 0.32 0.31 0.30 0.34 0.37 0.34 0.29 0.27 0.28 0.25 0.25 0.26 0.25 0.22 0.22 0.19 0.18 0.18 0.21 0.22 0.21 0.18 0.16 0.16 0.14 0.16 0.20 0.22 0.23 0.20 0.28 0.34 0.36 0.37 0.45 0.56 0.64 0.72 0.84 0.87 0.93 0.93 0.95 0.95 1.01
0.38 0.38 0.36 0.38 0.29 0.29 0.27 0.30 0.32 0.28 0.29 0.30 0.28 0.26 0.26 0.26 0.20 0.17 0.11 0.16 0.18 0.30 0.30 0.29 0.26 0.29 0.28 0.25 0.25 0.30 0.29 0.32 0.30 0.36 0.35 0.42 0.42 0.44 0.44 0.39 0.39 0.35 0.33 0.30 0.28 0.30 0.32 0.34 0.31 0.30 0.34 0.33 0.31 0.28 0.27 0.26 0.22 0.21 0.19 0.18 0.21 0.19 0.20 0.19 0.18 0.18 0.14 0.11 0.15 0.17 0.17 0.21 0.17 0.20 0.32 0.37 0.43 0.47 0.48 0.52 0.66 0.76 0.79 0.82 0.89 0.94 0.89 0.96
0.38 0.37 0.37 0.35 0.34 0.34 0.27 0.25 0.28 0.32 0.32 0.31 0.27 0.23 0.22 0.14 0.24 0.11 0.14 0.21 0.11 0.32 0.31 0.33 0.34 0.34 0.30 0.30 0.28 0.30 0.27 0.31 0.31 0.31 0.31 0.33 0.34 0.36 0.35 0.31 0.32 0.26 0.26 0.25 0.23 0.29 0.27 0.29 0.34 0.32 0.35 0.33 0.28 0.25 0.24 0.23 0.21 0.19 0.20 0.18 0.15 0.15 0.15 0.12 0.14 0.12 0.10 0.09 0.14 0.15 0.15 0.15 0.14 0.19 0.28 0.32 0.37 0.45 0.49 0.50 0.54 0.69 0.77 0.87 0.95 0.94 0.87 0.90
0.38 0.38 0.39 0.39 0.40 0.40 0.35 0.34 0.35 0.34 0.32 0.30 0.25 0.22 0.18 0.16 0.11 0.19 0.12 0.16 0.21 0.37 0.34 0.39 0.35 0.33 0.33 0.30 0.28 0.31 0.33 0.27 0.32 0.29 0.34 0.35 0.34 0.36 0.37 0.36 0.36 0.30 0.23 0.28 0.26 0.25 0.24 0.30 0.32 0.31 0.33 0.34 0.31 0.20 0.21 0.20 0.20 0.19 0.18 0.18 0.15 0.14 0.12 0.10 0.11 0.12 0.12 0.13 0.14 0.14 0.16 0.11 0.13 0.18 0.22 0.25 0.33 0.37 0.44 0.52 0.54 0.58 0.65 0.85 1.00 0.95 0.87 0.89
0.37 0.42 0.38 0.42 0.37 0.37 0.39 0.35 0.32 0.32 0.31 0.28 0.23 0.20 0.18 0.12 0.11 0.20 0.21 0.25 0.34 0.38 0.40 0.37 0.34 0.33 0.30 0.25 0.27 0.30 0.26 0.31 0.32 0.28 0.31 0.32 0.33 0.31 0.35 0.36 0.37 0.33 0.32 0.33 0.26 0.24 0.20 0.21 0.26 0.29 0.26 0.34 0.30 0.25 0.22 0.22 0.21 0.21 0.21 0.21 0.17 0.16 0.13 0.10 0.11 0.10 0.10 0.14 0.17 0.15 0.14 0.12 0.11 0.13 0.21 0.24 0.26 0.33 0.38 0.44 0.52 0.55 0.60 0.73 0.98 0.97 0.89 0.88
0.40 0.46 0.45 0.47 0.41 0.39 0.31 0.30 0.33 0.34 0.31 0.29 0.20 0.15 0.11 0.11 0.16 0.15 0.15 0.30 0.35 0.36 0.32 0.37 0.32 0.29 0.26 0.27 0.29 0.32 0.31 0.27 0.32 0.31 0.29 0.31 0.29 0.31 0.30 0.31 0.35 0.36 0.33 0.29 0.30 0.26 0.23 0.23 0.26 0.31 0.31 0.33 0.28 0.27 0.26 0.25 0.23 0.23 0.23 0.23 0.20 0.16 0.20 0.16 0.17 0.15 0.16 0.15 0.14 0.16 0.12 0.13 0.14 0.19 0.29 0.23 0.22 0.24 0.32 0.39 0.43 0.49 0.56 0.67 0.88 0.86 0.85 0.89
0.42 0.45 0.49 0.39 0.34 0.29 0.28 0.31 0.33 0.34 0.31 0.26 0.19 0.14 0.11 0.11 0.10 0.21 0.29 0.39 0.36 0.31 0.29 0.30 0.30 0.25 0.23 0.24 0.28 0.30 0.35 0.30 0.30 0.31 0.29 0.30 0.33 0.31 0.35 0.34 0.34 0.36 0.32 0.27 0.32 0.25 0.26 0.23 0.30 0.29 0.32 0.32 0.31 0.29 0.24 0.26 0.19 0.22 0.21 0.17 0.17 0.21 0.20 0.21 0.24 0.25 0.22 0.18 0.16 0.20 0.17 0.16 0.18 0.18 0.20 0.23 0.23 0.23 0.25 0.33 0.39 0.45 0.51 0.57 0.80 0.88 0.80 0.85
0.39 0.50 0.43 0.38 0.32 0.29 0.31 0.32 0.33 0.31 0.32 0.25 0.20 0.14 0.14 0.13 0.14 0.19 0.31 0.30 0.30 0.31 0.29 0.21 0.24 0.29 0.24 0.21 0.26 0.29 0.31 0.32 0.31 0.28 0.25 0.30 0.30 0.35 0.35 0.37 0.38 0.37 0.37 0.33 0.31 0.35 0.27 0.26 0.31 0.27 0.26 0.31 0.35 0.32 0.27 0.26 0.28 0.26 0.18 0.18 0.22 0.24 0.22 0.20 0.16 0.21 0.18 0.16 0.16 0.18 0.16 0.17 0.16 0.13 0.20 0.23 0.20 0.18 0.22 0.26 0.29 0.40 0.46 0.50 0.61 0.81 0.84 0.88
0.40 0.48 0.47 0.40 0.32 0.31 0.31 0.34 0.33 0.33 0.32 0.29 0.20 0.18 0.19 0.14 0.17 0.25 0.31 0.32 0.32 0.32 0.27 0.24 0.25 0.32 0.29 0.31 0.29 0.33 0.32 0.29 0.30 0.28 0.25 0.29 0.27 0.39 0.37 0.38 0.41 0.39 0.38 0.40 0.33 0.33 0.35 0.28 0.30 0.29 0.28 0.32 0.36 0.33 0.27 0.26 0.28 0.26 0.23 0.25 0.18 0.15 0.14 0.18 0.17 0.14 0.15 0.14 0.14 0.17 0.19 0.18 0.20 0.19 0.20 0.18 0.19 0.18 0.20 0.23 0.25 0.31 0.37 0.40 0.46 0.60 0.80 0.81
0.47 0.44 0.33 0.36 0.36 0.30 0.31 0.33 0.37 0.35 0.32 0.28 0.26 0.20 0.25 0.28 0.34 0.28 0.31 0.31 0.28 0.26 0.22 0.23 0.23 0.29 0.32 0.32 0.39 0.40 0.39 0.28 0.32 0.29 0.25 0.27 0.27 0.39 0.40 0.43 0.40 0.43 0.43 0.42 0.36 0.39 0.37 0.29 0.31 0.33 0.30 0.33 0.34 0.31 0.21 0.21 0.25 0.28 0.30 0.26 0.23 0.20 0.17 0.15 0.16 0.17 0.17 0.16 0.15 0.13 0.15 0.14 0.18 0.19 0.22 0.23 0.21 0.21 0.21 0.25 0.27 0.29 0.35 0.41 0.49 0.54 0.70 0.81
0.37 0.39 0.28 0.37 0.34 0.32 0.32 0.37 0.37 0.38 0.32 0.23 0.23 0.27 0.32 0.28 0.31 0.32 0.30 0.25 0.21 0.20 0.20 0.21 0.26 0.28 0.33 0.34 0.39 0.37 0.41 0.38 0.34 0.35 0.30 0.32 0.30 0.43 0.38 0.46 0.42 0.42 0.45 0.45 0.39 0.41 0.39 0.37 0.30 0.32 0.34 0.34 0.26 0.27 0.22 0.21 0.19 0.21 0.23 0.24 0.23 0.19 0.22 0.20 0.20 0.15 0.16 0.15 0.16 0.17 0.16 0.18 0.18 0.18 0.17 0.22 0.27 0.24 0.23 0.23 0.25 0.27 0.33 0.42 0.52 0.58 0.69 0.81
0.43 0.36 0.30 0.37 0.36 0.34 0.36 0.37 0.33 0.28 0.26 0.29 0.30 0.26 0.25 0.23 0.26 0.26 0.26 0.31 0.30 0.32 0.24 0.19 0.22 0.25 0.32 0.34 0.36 0.40 0.38 0.38 0.37 0.37 0.37 0.36 0.36 0.32 0.41 0.42 0.45 0.43 0.45 0.43 0.40 0.42 0.39 0.37 0.31 0.33 0.32 0.29 0.27 0.29 0.27 0.24 0.23 0.21 0.21 0.22 0.23 0.19 0.17 0.15 0.15 0.21 0.17 0.16 0.15 0.16 0.18 0.24 0.29 0.28 0.27 0.24 0.26 0.29 0.27 0.26 0.28 0.28 0.28 0.32 0.43 0.57 0.68 0.77
0.35 0.26 0.29 0.39 0.37 0.35 0.33 0.28 0.24 0.26 0.27 0.25 0.25 0.24 0.24 0.31 0.26 0.27 0.27 0.29 0.29 0.24 0.29 0.25 0.23 0.23 0.28 0.32 0.36 0.38 0.37 0.36 0.37 0.38 0.39 0.37 0.41 0.38 0.39 0.45 0.46 0.49 0.43 0.37 0.37 0.43 0.45 0.46 0.37 0.34 0.33 0.30 0.31 0.33 0.33 0.29 0.26 0.25 0.23 0.22 0.25 0.24 0.21 0.19 0.15 0.19 0.20 0.17 0.17 0.18 0.18 0.22 0.30 0.30 0.28 0.26 0.25 0.25 0.29 0.28 0.29 0.31 0.30 0.32 0.37 0.47 0.60 0.72
0.30 0.29 0.39 0.41 0.37 0.35 0.31 0.23 0.23 0.25 0.24 0.25 0.27 0.24 0.30 0.24 0.25 0.30 0.29 0.29 0.27 0.34 0.30 0.28 0.28 0.31 0.32 0.32 0.34 0.35 0.37 0.35 0.38 0.38 0.42 0.43 0.42 0.42 0.42 0.44 0.46 0.47 0.50 0.45 0.42 0.44 0.50 0.42 0.37 0.36 0.37 0.37 0.36 0.36 0.35 0.31 0.28 0.26 0.26 0.25 0.24 0.22 0.22 0.21 0.22 0.24 0.22 0.20 0.15 0.16 0.15 0.22 0.30 0.30 0.27 0.23 0.23 0.21 0.23 0.24 0.25 0.30 0.35 0.35 0.37 0.43 0.54 0.64
0.36 0.32 0.36 0.38 0.39 0.36 0.29 0.17 0.19 0.20 0.23 0.25 0.24 0.22 0.29 0.27 0.26 0.25 0.26 0.30 0.30 0.31 0.31 0.30 0.30 0.33 0.31 0.34 0.38 0.36 0.41 0.34 0.40 0.40 0.40 0.46 0.42 0.47 0.44 0.43 0.45 0.45 0.45 0.47 0.44 0.49 0.38 0.39 0.40 0.35 0.33 0.31 0.31 0.33 0.32 0.32 0.29 0.26 0.25 0.25 0.24 0.25 0.25 0.25 0.27 0.29 0.24 0.24 0.20 0.15 0.14 0.17 0.31 0.31 0.30 0.28 0.22 0.20 0.19 0.21 0.22 0.27 0.34 0.39 0.41 0.47 0.60 0.73
0.37 0.38 0.35 0.34 0.37 0.38 0.27 0.25 0.23 0.22 0.22 0.24 0.22 0.22 0.25 0.26 0.31 0.29 0.27 0.26 0.32 0.31 0.28 0.31 0.38 0.39 0.33 0.39 0.36 0.43 0.42 0.40 0.37 0.43 0.44 0.45 0.43 0.48 0.46 0.44 0.45 0.43 0.47 0.53 0.54 0.55 0.42 0.39 0.38 0.32 0.27 0.24 0.22 0.22 0.23 0.25 0.24 0.26 0.28 0.28 0.27 0.24 0.24 0.24 0.22 0.24 0.20 0.26 0.25 0.20 0.18 0.27 0.32 0.31 0.30 0.26 0.23 0.21 0.22 0.22 0.21 0.28 0.35 0.43 0.54 0.64 0.78 0.77
0.34 0.29 0.31 0.32 0.33 0.40 0.34 0.32 0.31 0.26 0.25 0.27 0.22 0.26 0.25 0.24 0.29 0.29 0.30 0.27 0.31 0.31 0.31 0.33 0.37 0.36 0.35 0.37 0.32 0.31 0.34 0.40 0.39 0.38 0.43 0.43 0.45 0.45 0.47 0.45 0.44 0.42 0.44 0.51 0.57 0.52 0.44 0.45 0.40 0.37 0.34 0.31 0.33 0.43 0.35 0.34 0.30 0.25 0.26 0.28 0.27 0.26 0.26 0.27 0.26 0.22 0.20 0.22 0.23 0.26 0.25 0.31 0.27 0.29 0.26 0.25 0.25 0.22 0.23 0.24 0.24 0.29 0.36 0.49 0.64 0.62 0.55 0.58
0.43 0.34 0.31 0.31 0.29 0.37 0.28 0.29 0.29 0.28 0.26 0.28 0.23 0.27 0.24 0.26 0.28 0.28 0.34 0.26 0.32 0.30 0.31 0.34 0.34 0.30 0.34 0.35 0.35 0.32 0.31 0.39 0.41 0.38 0.40 0.41 0.45 0.48 0.49 0.46 0.44 0.44 0.45 0.48 0.54 0.52 0.45 0.41 0.43 0.40 0.41 0.49 0.52 0.47 0.43 0.38 0.31 0.29 0.27 0.28 0.29 0.28 0.25 0.25 0.24 0.21 0.27 0.23 0.18 0.25 0.27 0.30 0.32 0.30 0.29 0.25 0.25 0.26 0.23 0.27 0.29 0.38 0.42 0.56 0.52 0.40 0.43 0.53
0.39 0.41 0.41 0.44 0.29 0.27 0.24 0.24 0.29 0.28 0.30 0.30 0.28 0.29 0.27 0.26 0.27 0.25 0.30 0.31 0.30 0.35 0.26 0.31 0.35 0.35 0.35 0.33 0.36 0.31 0.34 0.32 0.41 0.42 0.48 0.48 0.47 0.48 0.44 0.45 0.43 0.45 0.45 0.43 0.49 0.49 0.47 0.40 0.45 0.46 0.40 0.44 0.56 0.48 0.43 0.39 0.37 0.33 0.30 0.29 0.28 0.29 0.26 0.23 0.24 0.27 0.28 0.23 0.21 0.27 0.30 0.27 0.34 0.32 0.30 0.28 0.30 0.30 0.30 0.31 0.37 0.44 0.38 0.40 0.39 0.39 0.41 0.55
0.52 0.48 0.45 0.47 0.32 0.31 0.30 0.31 0.31 0.31 0.29 0.31 0.29 0.28 0.28 0.26 0.25 0.29 0.28 0.27 0.29 0.31 0.36 0.24 0.29 0.36 0.33 0.36 0.35 0.32 0.34 0.31 0.33 0.47 0.47 0.46 0.46 0.45 0.42 0.42 0.44 0.46 0.45 0.43 0.45 0.49 0.45 0.39 0.43 0.44 0.45 0.48 0.49 0.50 0.47 0.39 0.38 0.38 0.35 0.29 0.29 0.30 0.28 0.26 0.26 0.28 0.28 0.28 0.29 0.35 0.36 0.29 0.31 0.34 0.32 0.32 0.32 0.30 0.31 0.34 0.37 0.37 0.30 0.36 0.37 0.33 0.35 0.49
0.49 0.46 0.44 0.48 0.42 0.37 0.35 0.34 0.32 0.31 0.29 0.31 0.25 0.32 0.29 0.27 0.26 0.30 0.32 0.30 0.26 0.31 0.35 0.31 0.31 0.33 0.33 0.32 0.34 0.32 0.36 0.39 0.40 0.40 0.48 0.48 0.45 0.47 0.46 0.48 0.46 0.49 0.47 0.42 0.43 0.47 0.42 0.38 0.44 0.46 0.42 0.42 0.45 0.45 0.47 0.41 0.39 0.37 0.35 0.32 0.31 0.31 0.30 0.30 0.28 0.28 0.30 0.29 0.31 0.31 0.36 0.36 0.36 0.34 0.36 0.37 0.37 0.34 0.35 0.34 0.34 0.33 0.34 0.36 0.36 0.35 0.37 0.41
0.60 0.61 0.59 0.47 0.37 0.36 0.35 0.36 0.32 0.30 0.27 0.31 0.29 0.31 0.29 0.29 0.28 0.31 0.30 0.34 0.31 0.28 0.31 0.29 0.33 0.32 0.34 0.33 0.32 0.34 0.39 0.40 0.42 0.44 0.48 0.48 0.42 0.49 0.46 0.47 0.51 0.43 0.44 0.42 0.43 0.44 0.43 0.42 0.43 0.43 0.38 0.36 0.40 0.40 0.43 0.44 0.40 0.36 0.35 0.34 0.33 0.29 0.27 0.29 0.29 0.30 0.29 0.27 0.29 0.29 0.29 0.33 0.42 0.41 0.39 0.41 0.41 0.39 0.35 0.34 0.34 0.36 0.38 0.35 0.34 0.35 0.36 0.39
0.71 0.70 0.67 0.55 0.39 0.39 0.35 0.37 0.34 0.30 0.28 0.32 0.29 0.29 0.29 0.29 0.31 0.32 0.29 0.34 0.37 0.38 0.36 0.34 0.32 0.31 0.30 0.32 0.33 0.35 0.39 0.41 0.43 0.45 0.49 0.50 0.51 0.50 0.52 0.52 0.51 0.47 0.44 0.42 0.46 0.42 0.44 0.41 0.38 0.37 0.33 0.34 0.36 0.38 0.38 0.41 0.40 0.34 0.33 0.35 0.36 0.35 0.33 0.32 0.32 0.33 0.32 0.33 0.30 0.27 0.29 0.37 0.41 0.44 0.39 0.38 0.37 0.37 0.36 0.35 0.35 0.35 0.34 0.34 0.36 0.38 0.39 0.40
Wind_Speed
17 17 18 18 18 18 18 17 17 17 17 17 17 17 17 17 17 16 16 15 15 15 14 14 14 14 14 14 14 14 14 14 14 14 16 15 14 14 14 14 15 17 18 18 18 18 19 18 18 17 15 14 13 12 12 11 9 8 7 7 5 2 4 4 2 4 3 4 4 5 4 4 5 4 4 4 5 5 5 4 4 3 3 4 9 13 14 15
18 18 18 18 19 19 18 18 18 18 18 18 18 18 18 18 18 17 17 16 16 15 15 14 14 14 14 14 14 14 14 15 15 16 18 17 15 14 14 14 15 17 18 19 19 19 19 19 19 17 15 14 13 13 12 12 10 9 7 7 6 5 7 6 2 3 2 3 3 4 5 3 4 4 4 4 5 5 5 5 5 5 5 6 11 13 14 14
18 18 19 19 19 19 19 19 19 19 19 19 19 19 19 19 19 18 17 17 16 16 15 15 14 14 13 13 14 14 14 15 16 18 18 18 17 17 16 15 16 17 19 19 19 19 19 19 19 18 16 14 14 13 13 12 11 11 10 8 6 6 8 6 3 3 2 2 2 3 4 4 4 5 4 4 5 5 5 5 6 6 6 8 11 13 14 14
19 19 19 19 19 19 20 20 20 20 20 20 20 20 20 20 19 19 18 18 17 16 16 15 15 14 13 13 13 13 13 15 15 16 15 15 17 18 17 17 17 18 19 20 20 20 19 19 19 19 17 15 15 14 13 12 11 10 11 9 6 7 8 6 4 4 3 2 1 3 4 4 5 5 5 5 5 4 5 6 7 7 7 9 11 13 14 14
19 19 19 19 19 20 20 20 21 21 21 21 21 21 21 20 20 19 19 18 18 17 16 16 15 14 13 13 12 12 12 12 11 11 12 13 14 16 17 17 19 19 20 20 21 21 21 20 20 20 18 16 15 15 14 14 12 11 11 10 9 8 6 5 6 5 5 3 2 2 3 4 5 5 6 5 4 2 4 6 7 8 9 10 11 12 13 14
20 20 20 20 20 20 20 21 21 21 21 21 21 22 21 21 20 20 19 19 18 18 17 16 16 15 14 13 12 12 12 11 8 8 11 12 13 14 15 16 19 20 20 21 21 22 22 21 21 20 19 17 17 16 15 15 14 12 11 11 11 11 8 6 6 6 6 5 4 3 2 4 4 4 5 6 4 2 3 6 8 9 9 10 11 12 13 14
21 21 21 21 21 21 21 21 22 22 22 22 22 22 22 21 21 20 20 19 19 19 18 17 16 15 14 13 13 13 14 15 12 11 11 12 13 13 14 15 19 21 21 22 22 22 22 22 22 21 19 17 17 17 16 16 16 14 12 11 11 11 10 8 8 8 8 7 6 4 3 5 5 4 4 6 6 5 4 6 8 9 9 10 11 12 13 13
22 22 22 22 22 22 22 22 22 22 22 22 22 22 22 22 21 21 21 20 20 19 18 17 16 15 14 13 13 14 15 17 16 14 13 14 14 14 15 16 19 21 22 23 23 22 23 23 23 21 19 18 17 17 17 16 16 17 14 12 11 11 11 11 10 10 10 9 8 7 6 6 5 5 5 6 7 7 5 6 9 9 9 10 11 12 13 13
22 23 23 23 23 23 24 24 23 23 23 23 23 23 22 22 22 21 21 21 20 19 18 17 17 15 15 14 14 15 15 15 15 14 14 14 15 16 17 17 19 21 22 23 23 23 22 23 23 22 19 18 18 17 18 17 16 16 17 15 13 12 12 12 12 12 12 10 9 8 8 7 6 6 6 7 8 8 7 8 9 9 9 10 10 12 13 13
23 23 24 24 24 24 25 25 24 24 24 24 24 23 22 22 22 22 21 21 20 19 18 18 17 16 16 15 15 15 14 14 14 15 15 15 16 17 18 18 19 22 23 23 24 24 23 22 23 22 20 18 18 18 18 18 16 15 16 17 15 14 13 13 13 14 13 12 10 10 9 8 8 7 7 8 9 9 8 9 10 9 10 10 10 11 12 13
24 24 25 25 25 25 25 26 25 25 25 25 24 23 23 22 22 21 21 20 20 19 19 18 17 17 17 17 17 16 13 13 14 15 15 16 17 18 19 18 20 22 23 23 24 25 24 23 22 21 20 18 18 19 19 19 18 15 14 15 16 16 15 15 15 15 14 12 11 11 10 10 9 8 7 8 10 10 9 10 10 10 9 10 10 10 11 13
25 25 26 26 26 26 26 26 26 26 26 26 25 24 23 23 22 21 20 20 19 19 18 18 18 18 18 18 20 18 14 13 14 14 15 16 18 19 19 19 20 22 22 23 24 25 25 24 23 22 21 18 18 18 18 20 20 18 16 15 16 16 17 17 17 16 15 13 12 11 11 11 11 11 9 9 11 11 10 11 11 11 10 10 10 10 10 12
26 27 27 27 27 27 27 27 27 27 27 26 25 24 24 23 22 21 20 19 19 18 18 18 18 18 19 19 20 20 19 18 16 15 16 15 17 19 19 20 20 21 22 23 23 24 25 25 24 24 22 19 19 17 15 18 20 19 18 16 15 15 16 18 18 18 17 14 13 12 10 10 11 12 12 10 11 11 11 12 11 11 11 10 10 10 10 12
27 28 28 28 28 28 28 28 28 28 28 27 26 25 25 24 23 21 21 20 19 18 18 18 18 19 19 20 19 18 19 20 19 18 17 16 16 18 19 20 20 20 21 22 23 23 24 25 25 25 24 22 20 18 16 18 19 19 19 17 16 15 15 17 18 19 18 15 15 13 11 9 9 11 13 12 12 12 12 12 11 12 12 11 10 10 11 11
28 29 29 29 29 29 29 29 29 29 28 27 26 26 25 24 23 22 21 20 18 18 17 18 19 19 20 21 21 19 19 20 21 20 19 18 17 18 19 20 20 20 21 22 22 23 24 25 25 24 24 24 22 19 18 19 18 18 19 18 17 17 15 16 18 20 18 17 17 15 12 10 9 10 13 12 12 12 12 12 11 12 13 11 11 11 11 11
29 30 30 30 30 30 30 30 30 29 29 28 27 26 26 25 23 22 22 20 19 18 17 18 19 20 20 19 18 19 20 21 22 21 20 20 19 18 19 20 20 21 21 21 21 22 23 25 25 25 24 24 24 20 18 19 19 19 19 18 18 18 17 15 17 20 19 17 18 17 14 11 9 10 12 13 13 11 12 13 12 13 13 12 11 11 11 11
30 31 31 31 31 31 31 31 31 30 29 29 28 27 25 24 23 23 22 21 20 19 19 19 19 21 21 19 18 19 21 22 22 22 21 21 20 18 19 20 20 21 21 21 21 21 23 25 24 24 24 24 24 23 21 21 21 19 19 19 18 19 18 17 16 18 20 19 18 17 16 13 11 11 12 13 13 12 11 13 13 13 13 12 11 12 12 12
31 31 32 32 32 32 32 31 31 30 30 29 28 27 26 24 24 23 22 22 21 21 22 21 21 20 21 22 21 19 20 22 22 22 23 23 22 19 19 20 20 20 20 20 21 22 23 24 23 23 25 25 25 25 24 22 21 21 20 19 19 18 19 19 17 17 19 21 20 18 17 16 15 12 12 13 14 13 12 12 14 14 14 13 12 13 13 13
32 32 32 32 32 33 32 32 31 30 30 29 28 27 25 24 24 24 23 23 23 23 22 21 23 21 18 19 22 20 18 21 22 23 24 24 23 21 20 20 20 21 21 19 21 23 22 22 24 25 26 27 27 27 26 24 22 22 21 20 20 20 19 19 18 17 18 21 22 21 18 17 17 16 14 14 15 15 13 12 14 14 14 14 13 13 13 14
33 33 34 33 34 33 33 32 31 30 29 28 27 26 24 23 24 24 23 25 26 27 27 25 26 26 23 20 21 20 18 20 22 24 25 25 24 23 22 21 21 21 21 20 20 22 22 22 25 26 26 27 28 28 27 26 24 23 22 21 22 22 20 19 19 18 17 19 21 21 21 19 18 18 17 16 16 16 15 14 14 15 14 14 13 13 14 15
34 34 34 34 35 34 34 33 31 30 29 26 26 24 22 23 24 24 25 28 29 30 32 32 30 30 29 25 22 21 21 22 23 24 25 26 26 25 23 23 22 21 22 22 21 21 23 23 25 26 27 27 28 28 28 28 27 25 23 22 22 23 22 20 20 20 17 17 19 20 21 20 19 18 17 16 16 17 17 15 15 16 15 14 14 14 14 15
35 35 35 35 35 35 34 33 31 30 28 26 24 23 23 24 25 27 28 29 30 31 32 33 33 32 31 31 28 24 24 24 25 26 26 27 28 26 24 24 23 22 22 23 21 21 23 23 24 25 26 27 27 28 29 29 29 27 23 22 22 21 21 22 22 22 19 17 18 20 21 20 20 20 19 18 17 17 18 18 16 16 16 14 13 14 15 17
36 35 35 35 35 35 35 33 32 30 27 26 24 23 24 25 26 28 29 30 31 32 32 33 34 33 32 33 31 28 28 27 26 27 28 29 29 28 26 26 25 23 24 25 24 22 21 22 24 25 25 27 27 27 28 28 28 27 25 24 23 22 21 21 21 22 21 19 18 21 21 21 20 21 21 21 20 18 19 20 18 16 17 15 14 14 15 18
36 36 36 36 36 35 35 33 31 29 27 27 26 25 26 27 27 28 30 31 31 31 32 34 33 33 33 31 31 32 31 29 28 28 29 30 30 29 27 27 26 25 25 27 27 25 22 20 22 26 25 26 27 27 27 27 26 28 28 26 25 24 23 22 21 21 22 22 21 21 21 21 21 21 21 21 21 20 20 21 20 18 17 17 16 16 16 17
37 37 37 37 36 36 36 32 28 28 29 27 26 26 27 27 27 27 28 29 30 29 29 31 31 32 32 31 31 32 31 31 31 29 30 32 31 29 27 26 26 27 27 28 28 26 24 21 21 25 26 26 27 26 26 26 24 26 29 29 26 26 25 24 22 21 21 22 22 22 22 21 22 23 22 21 22 22 22 22 22 20 19 18 17 17 17 17
37 37 37 37 36 36 34 30 28 30 29 27 27 28 28 27 27 27 27 28 29 28 26 27 28 28 30 31 32 31 31 33 34 31 31 33 33 30 28 26 26 27 27 27 26 24 24 24 22 23 25 26 26 25 26 26 23 23 26 28 29 28 26 25 25 23 21 20 19 21 22 21 21 23 23 23 23 24 23 23 23 22 20 20 18 17 17 16
38 37 38 37 36 35 31 29 30 30 28 27 29 29 28 27 26 26 25 26 27 25 24 24 25 25 27 30 31 30 28 29 33 35 33 33 34 32 30 28 27 27 26 24 25 24 25 26 25 23 25 25 25 24 25 26 24 22 22 24 28 30 29 27 25 24 22 21 20 22 23 21 21 22 21 23 25 25 23 23 23 23 22 21 19 17 17 17
39 39 38 38 37 35 31 30 31 29 28 29 30 30 28 28 27 25 24 24 22 21 22 22 24 25 26 28 32 33 28 24 29 36 36 34 35 34 32 32 29 28 28 27 26 25 25 28 27 25 25 24 24 23 23 25 24 22 20 21 23 26 29 28 26 25 23 22 23 24 24 21 21 20 20 21 23 24 23 22 23 24 23 22 20 18 18 18
39 39 39 38 37 34 32 31 31 30 30 30 31 30 29 28 26 24 24 24 21 20 22 22 23 26 27 27 32 35 31 27 27 32 36 36 36 35 32 33 31 29 30 31 28 25 24 28 28 26 25 24 24 24 23 24 23 21 21 21 20 21 23 25 26 25 24 25 26 26 25 22 19 20 22 23 23 23 22 22 24 25 24 23 21 19 19 17
40 40 39 38 36 33 31 31 31 30 31 31 30 30 29 28 25 25 25 25 23 21 21 22 23 25 27 27 29 33 34 31 27 29 36 36 36 36 33 32 32 29 30 32 31 28 25 26 28 27 26 24 23 23 24 24 23 22 22 20 19 19 19 21 23 24 24 26 27 27 27 25 21 20 22 24 24 23 22 21 23 25 25 24 22 20 19 18
41 40 39 38 35 33 32 31 31 32 32 31 30 30 29 26 25 26 25 23 22 20 20 22 22 24 27 27 28 31 34 33 29 29 34 35 35 37 34 33 33 30 30 32 32 31 29 26 26 28 27 26 24 23 23 24 23 22 21 20 18 18 18 19 20 22 23 24 24 26 27 27 24 21 20 22 24 25 24 23 23 25 26 25 24 22 20 19
41 40 39 37 34 33 32 32 33 33 32 31 30 29 27 26 28 29 26 23 21 20 20 22 22 23 26 28 28 30 33 33 31 31 34 35 35 36 37 34 33 32 31 31 31 31 31 29 27 27 28 28 26 23 22 23 24 23 22 21 19 17 18 18 19 20 22 21 21 23 25 27 25 22 21 22 23 24 24 23 24 26 27 27 26 24 21 21
41 40 38 35 34 33 32 33 33 33 32 31 30 27 26 28 28 29 29 25 21 21 23 25 25 26 27 28 28 29 32 33 33 33 35 36 35 37 39 37 36 34 30 29 30 30 30 30 30 28 28 30 29 25 23 23 24 25 23 22 20 18 17 18 18 18 19 19 20 22 24 25 24 21 23 26 24 23 23 23 24 26 27 28 27 24 22 22
41 39 36 34 34 33 33 34 33 32 31 30 28 27 28 29 29 29 29 25 23 25 26 27 27 28 29 29 29 29 30 32 34 34 34 36 36 36 39 40 40 37 30 28 30 30 30 30 33 32 28 30 32 28 25 23 24 25 24 22 22 20 18 16 17 17 17 16 19 23 23 21 20 18 20 24 25 24 23 23 24 25 26 26 26 25 23 22
39 37 34 32 32 33 34 33 31 30 29 28 27 27 29 29 28 28 27 25 26 28 28 29 29 29 29 29 30 29 28 29 33 35 34 36 37 36 37 40 41 39 33 30 28 30 32 30 32 34 30 30 33 31 27 24 23 25 24 24 23 22 19 16 16 17 17 16 17 21 21 19 18 17 17 19 23 25 24 23 23 24 26 26 26 26 25 23
36 33 31 29 30 33 34 31 29 28 27 26 26 27 28 27 26 24 24 25 28 29 29 28 27 27 28 28 29 29 28 27 30 33 34 35 37 37 36 37 40 41 37 32 28 28 31 29 29 34 33 32 33 32 30 27 23 23 26 26 24 22 21 18 17 16 16 16 16 17 18 17 16 17 17 18 20 24 26 25 24 24 26 26 25 26 27 25
33 32 30 28 31 34 33 29 26 25 24 23 25 26 26 26 26 24 24 26 28 29 28 27 25 24 25 25 26 27 28 27 29 31 33 34 34 35 36 36 38 42 41 35 30 27 28 28 29 34 35 33 32 32 33 31 25 23 26 26 23 22 22 20 17 16 16 15 15 16 17 17 16 16 17 19 21 22 25 27 26 25 26 27 26 26 27 26
33 32 28 27 32 35 31 27 23 21 20 20 23 24 24 25 25 25 26 27 28 28 28 28 27 24 23 22 20 21 24 27 28 29 31 32 30 29 32 33 34 37 41 39 33 29 27 26 27 33 35 31 31 32 32 33 31 26 24 24 24 23 23 22 19 17 16 15 14 16 17 17 17 15 15 18 21 22 23 25 26 27 27 27 27 27 28 27
32 29 25 28 33 33 30 25 20 17 17 17 19 19 19 21 22 24 26 27 27 29 29 30 29 27 26 24 20 21 24 25 25 27 29 30 28 27 28 30 30 31 35 38 35 30 28 26 24 30 34 31 29 32 32 33 34 30 25 25 26 24 22 22 21 18 16 14 13 14 16 16 17 17 17 17 18 20 22 22 24 25 25 26 27 27 27 27
29 26 23 29 33 31 29 23 16 13 12 14 16 17 18 19 21 23 25 26 26 27 29 31 30 29 29 26 23 24 26 26 26 26 27 25 24 26 27 29 30 31 32 36 37 32 28 27 24 25 32 33 31 33 34 33 34 32 29 27 27 25 22 22 22 20 18 15 13 12 12 12 13 16 18 17 16 18 21 22 22 24 24 25 26 26 27 27
27 23 23 29 31 30 28 21 14 11 10 11 13 16 17 19 20 22 23 23 25 27 29 32 33 33 31 28 26 26 26 28 28 27 27 23 22 25 28 29 31 32 33 35 38 35 28 28 27 24 29 33 33 33 34 34 34 33 31 28 27 26 24 22 21 21 20 17 14 12 11 8 7 10 14 16 16 16 18 20 21 22 24 25 25 26 26 26
25 23 24 27 28 28 25 19 15 13 11 11 13 15 16 17 18 19 20 21 23 25 27 30 32 33 33 31 30 28 27 28 29 29 27 23 23 26 27 29 31 32 33 34 38 38 29 26 28 26 27 31 32 32 33 34 34 33 32 30 27 26 26 24 21 19 20 19 16 14 12 8 6 8 10 12 14 15 16 18 19 20 22 24 25 26 26 26
24 23 24 25 26 25 22 18 17 14 12 13 14 14 14 15 16 16 17 18 19 21 23 26 29 30 32 32 31 31 29 28 30 31 27 23 25 28 28 28 29 30 32 32 35 37 32 29 29 27 24 27 30 31 32 33 34 33 34 33 30 29 27 25 22 19 19 19 18 16 14 11 8 8 10 10 12 14 15 17 18 19 20 21 23 24 25 26
24 23 22 23 24 22 19 18 18 16 15 15 14 13 13 13 14 14 15 16 16 17 19 22 25 28 31 32 31 31 30 28 29 30 28 25 26 27 28 29 28 28 30 30 31 33 35 35 33 28 24 25 27 29 31 34 34 33 33 34 33 32 30 27 23 21 20 20 20 18 15 13 11 10 11 13 13 14 15 16 18 19 18 19 21 21 21 22
24 22 21 22 22 19 17 18 18 17 17 16 15 13 13 12 12 13 15 15 14 16 18 20 22 25 29 31 32 33 32 31 30 27 26 27 26 26 28 30 29 28 30 31 31 32 34 36 36 32 29 26 27 28 30 33 34 32 33 35 35 35 33 29 25 23 22 20 20 19 15 13 12 11 11 12 12 13 14 15 17 19 18 17 17 18 19 20
24 22 21 21 20 16 17 18 17 17 17 16 14 13 12 13 12 12 13 13 13 15 17 18 21 23 26 27 30 33 34 33 31 29 27 28 27 25 27 29 29 28 30 32 33 32 32 34 37 38 34 26 23 24 26 30 33 34 34 35 35 36 34 31 27 26 23 21 20 20 17 13 13 14 12 11 12 13 13 13 15 18 18 15 15 16 18 20
22 21 21 21 18 16 17 18 17 17 17 16 14 12 12 13 12 11 11 11 13 14 15 16 18 21 23 24 26 30 33 32 31 30 29 29 27 26 27 29 28 28 30 32 32 32 32 34 37 39 38 30 22 21 23 27 32 35 36 36 35 36 36 34 31 27 24 22 21 21 20 17 12 12 13 12 13 13 14 13 14 15 16 15 15 16 17 19
21 21 21 20 18 17 18 18 17 17 17 16 14 13 12 12 12 12 11 11 12 12 12 14 16 18 21 23 25 27 30 30 29 26 25 26 27 26 27 29 28 27 28 29 31 31 32 35 36 38 39 35 28 25 25 27 29 30 33 37 36 36 37 37 33 29 25 23 21 20 23 22 15 12 13 14 13 13 13 13 12 14 15 14 14 15 16 18
22 21 21 20 19 18 18 19 18 16 16 15 13 12 12 12 13 12 11 11 11 9 10 14 15 16 20 23 25 26 27 28 28 26 24 26 28 27 25 26 26 26 27 28 29 30 32 33 33 34 38 37 34 30 28 28 28 27 29 34 36 35 36 35 34 31 28 25 22 19 21 24 21 16 14 15 14 14 13 11 11 13 14 12 13 15 15 17
22 21 21 21 20 19 18 17 16 15 14 14 12 11 12 13 13 12 11 12 11 9 10 13 15 16 18 22 25 27 27 28 29 28 27 27 28 27 25 24 24 25 26 27 28 29 30 30 29 31 34 37 37 34 31 29 29 28 28 30 33 35 35 34 33 32 29 27 25 22 20 20 21 20 18 16 15 15 15 14 14 14 14 13 14 16 16 17
22 21 21 21 20 18 17 16 15 14 13 12 12 12 13 14 13 13 12 11 11 10 10 12 14 16 18 21 24 27 28 29 31 31 30 30 31 29 28 27 26 26 27 28 27 28 29 29 30 32 33 35 37 37 34 31 29 31 31 30 31 33 33 32 31 31 30 28 27 26 23 19 19 20 20 19 18 17 16 16 16 16 16 16 16 16 16 18
22 21 20 20 20 18 16 15 15 14 13 12 13 14 14 14 13 13 12 10 9 10 11 12 14 15 17 19 22 25 27 29 32 33 33 33 34 33 31 30 30 28 28 28 28 28 29 29 29 32 33 33 35 37 36 32 31 33 35 33 32 31 30 29 28 28 28 27 25 24 22 19 17 19 20 20 20 19 18 16 16 16 16 17 18 17 17 19
Wind_Direction
318 317 316 315 314 313 313 312 312 311 310 309 308 306 306 304 303 302 301 299 298 296 293 291 287 282 277 274 271 269 268 262 257 250 244 243 237 231 224 220 216 211 210 209 205 201 201 204 205 204 206 210 215 220 218 218 224 223 225 223 225 208 209 241 134 154 166 138 150 159 161 151 147 148 145 157 150 147 157 153 161 158 139 147 152 156 161 167
317 316 315 314 313 312 311 310 310 309 308 307 306 305 303 302 301 299 298 296 295 294 292 290 287 284 279 274 271 270 268 261 256 251 245 241 235 229 222 218 215 210 210 210 205 202 202 203 204 204 207 211 214 216 215 216 220 220 223 225 222 209 216 233 184 158 156 142 151 166 178 171 158 158 163 171 152 152 161 156 165 160 146 144 150 156 161 169
316 316 315 313 312 311 310 310 309 308 307 306 304 303 302 300 299 297 295 294 292 291 290 288 285 284 280 275 272 269 267 264 257 251 245 241 234 228 222 217 213 210 209 209 207 205 205 204 203 205 209 213 213 213 213 214 218 220 226 230 222 221 222 217 192 180 161 152 156 166 176 178 178 173 176 175 157 162 170 164 169 167 161 156 158 162 164 172
315 315 314 313 312 311 311 310 308 307 305 304 303 301 300 299 297 295 293 291 290 288 287 285 283 281 279 275 272 268 266 265 257 246 240 236 229 225 221 216 212 210 209 209 207 207 207 206 205 207 211 214 212 212 215 213 217 222 227 228 223 233 228 205 201 191 178 187 146 158 177 183 184 180 181 178 169 175 180 174 174 172 167 163 166 167 167 174
315 314 313 312 312 311 311 309 308 307 305 303 301 300 299 297 295 293 291 289 288 286 283 282 279 277 275 273 268 264 261 259 252 236 230 227 219 217 218 215 210 208 209 209 208 208 208 207 206 208 212 215 212 213 217 215 218 228 232 230 228 237 229 201 208 196 194 214 186 181 191 179 178 184 190 193 191 178 177 177 174 173 167 167 172 172 172 175
315 314 313 312 311 310 310 309 308 306 305 303 301 300 298 296 294 292 289 287 285 283 281 278 275 272 270 268 264 258 248 246 246 231 228 220 209 209 213 213 209 207 208 209 209 209 209 208 207 209 212 216 216 216 218 217 220 229 232 231 232 238 236 217 212 204 210 220 208 212 204 183 188 197 198 201 198 161 159 170 169 172 169 170 174 175 176 176
315 314 312 312 311 310 309 308 307 306 305 303 301 300 297 294 292 290 288 285 283 280 278 274 270 267 265 263 258 253 245 246 249 237 230 220 210 214 215 212 208 207 209 209 209 210 209 209 209 210 213 216 218 218 220 220 221 228 233 232 232 235 235 228 219 214 218 223 223 228 222 211 211 208 202 204 201 182 164 164 166 169 167 171 175 178 180 178
315 314 313 312 311 310 309 307 307 305 304 302 301 299 296 293 290 289 287 284 281 278 274 270 266 261 258 257 254 251 246 247 248 238 232 226 220 221 219 215 210 208 212 212 210 211 210 211 211 212 214 217 220 220 221 223 223 226 232 235 234 234 232 227 222 219 221 225 228 229 229 229 225 225 219 205 200 193 181 170 168 169 169 172 177 181 183 182
314 313 313 312 311 310 308 307 306 305 303 301 300 298 295 293 290 288 285 282 279 275 271 266 262 256 252 252 252 252 249 245 242 233 229 228 225 223 221 219 213 210 213 214 212 212 212 212 213 213 217 220 222 223 222 224 225 224 229 234 234 235 231 224 221 220 222 224 228 228 230 234 228 230 227 209 199 193 185 178 173 174 176 175 178 183 185 187
314 313 312 312 311 310 308 307 305 303 302 300 298 297 294 293 290 287 284 280 276 273 268 263 257 250 247 248 248 250 251 245 238 233 229 227 224 222 222 220 215 212 214 215 213 213 213 214 213 214 220 223 224 226 223 222 224 225 228 231 234 236 234 228 222 221 222 224 229 229 232 235 228 225 223 209 201 193 185 181 177 179 181 179 180 183 186 190
314 313 312 312 311 310 308 306 304 302 300 298 296 294 293 292 289 287 283 278 275 271 266 259 252 247 245 245 245 245 246 243 238 235 233 229 225 222 223 220 215 213 215 215 215 214 215 215 214 215 219 223 225 226 225 224 224 226 228 230 232 235 236 232 226 222 222 225 227 228 235 238 230 226 224 208 198 195 191 186 182 183 183 182 182 182 186 192
313 313 312 311 310 309 308 306 304 302 299 297 294 292 291 290 288 285 281 277 274 270 263 256 249 246 245 245 244 242 243 243 242 239 234 231 227 223 223 220 216 215 215 216 216 215 215 215 215 217 218 220 223 225 226 225 226 230 231 231 231 232 233 229 224 222 221 222 222 225 235 236 230 226 219 204 195 196 197 193 189 188 187 185 184 183 186 191
312 312 311 310 309 308 307 305 304 301 298 295 292 290 289 288 285 281 278 276 274 269 261 253 248 246 246 246 246 244 243 242 243 243 235 231 227 222 222 221 217 217 216 216 216 215 216 216 217 219 219 220 221 222 227 225 224 228 230 232 232 232 232 226 221 220 219 220 218 221 233 233 228 219 211 203 197 200 203 196 194 196 192 191 188 185 188 190
311 310 309 309 308 307 306 304 303 301 297 294 291 289 287 285 282 278 275 274 271 267 258 251 248 246 246 249 249 245 242 241 241 239 233 228 224 220 219 219 218 218 217 217 217 217 217 217 218 220 221 223 224 224 227 225 222 224 228 230 230 231 231 223 218 217 217 219 215 219 229 231 224 206 201 203 199 205 209 199 198 202 198 197 195 189 189 190
310 309 308 307 306 306 305 303 302 300 297 293 290 287 285 282 279 275 272 271 267 262 255 250 248 246 250 253 251 244 239 239 237 234 231 227 222 220 218 218 218 217 217 217 218 219 218 217 218 220 220 222 225 227 226 224 221 221 225 228 225 227 230 221 215 214 216 216 212 217 225 229 225 201 194 199 203 210 212 204 204 206 200 199 202 197 193 191
309 308 307 306 305 304 303 302 301 299 296 293 290 286 283 279 275 271 270 267 262 257 251 250 248 247 253 255 248 240 235 235 233 230 229 226 223 222 219 218 217 216 217 216 217 219 218 217 218 220 220 219 221 224 223 221 220 219 222 227 223 222 225 220 212 212 216 215 212 216 224 227 215 199 196 197 204 214 214 210 208 207 203 200 205 206 199 193
310 308 307 306 305 303 302 301 299 297 295 293 290 285 281 276 272 269 266 262 258 254 250 251 249 247 251 252 246 240 233 232 232 228 226 224 223 222 217 216 215 213 214 214 216 217 215 216 218 219 220 219 218 218 221 220 217 217 219 224 226 222 221 218 212 210 214 216 215 215 220 223 209 197 202 202 208 215 215 214 210 209 207 202 206 210 205 198
312 310 308 307 305 303 302 300 298 296 294 293 289 283 277 273 270 267 262 258 256 253 251 250 247 247 249 245 243 244 235 229 229 226 224 221 221 220 216 215 213 211 212 214 216 215 212 215 218 219 219 218 217 216 219 219 215 215 216 220 224 224 221 218 215 211 211 215 219 219 218 221 218 208 206 208 214 218 218 218 213 210 210 206 209 211 207 204
312 311 310 308 306 304 302 300 298 295 293 292 289 282 273 270 269 263 257 255 252 250 251 245 237 243 252 243 238 242 238 229 225 224 222 218 218 218 216 215 213 211 212 214 214 213 211 214 217 220 219 217 217 216 218 219 219 218 218 220 222 224 223 219 218 216 214 216 220 223 224 223 223 221 218 215 218 221 222 221 215 212 211 212 212 211 211 210
312 311 310 308 307 306 303 301 298 295 293 289 288 282 272 271 268 260 259 258 252 251 255 251 240 244 252 247 236 237 236 230 225 224 221 217 216 216 215 213 212 212 214 214 212 212 213 216 218 219 219 217 217 218 219 221 223 223 222 223 223 224 224 219 218 216 215 220 221 223 227 226 224 225 223 216 216 224 225 221 218 215 211 213 214 212 215 215
312 310 309 308 307 306 304 302 298 295 293 287 286 281 273 275 271 265 268 265 257 253 253 253 248 246 247 245 240 236 235 231 227 225 221 216 214 216 215 212 212 214 215 213 212 212 214 220 220 218 219 219 218 219 220 220 223 225 225 225 224 224 224 221 219 216 214 221 224 224 228 228 225 226 223 215 216 223 224 220 220 218 211 212 215 213 216 216
312 311 309 308 307 305 304 301 297 296 294 286 283 280 276 275 269 267 268 264 260 256 252 250 248 246 244 243 241 238 236 232 226 223 219 214 214 215 214 212 214 214 213 212 213 213 217 223 221 218 218 219 219 219 220 221 221 223 225 226 227 224 223 223 220 220 219 223 228 228 230 231 229 230 229 226 225 223 222 222 222 219 213 213 215 212 215 217
313 311 309 308 307 305 303 300 296 294 291 285 282 282 279 276 271 268 266 262 261 257 251 247 245 243 241 239 238 235 235 231 226 222 216 214 215 215 213 213 215 214 212 213 214 213 217 222 220 217 217 217 220 219 219 221 221 222 223 223 226 223 222 223 221 221 222 223 229 231 233 234 232 232 231 232 232 225 222 223 223 220 215 215 216 212 214 216
314 312 310 308 306 304 302 298 294 292 288 282 281 283 281 277 273 271 267 262 259 256 250 245 241 240 238 236 234 232 233 232 227 221 215 215 215 215 216 214 214 216 215 214 216 217 219 220 217 216 216 216 218 218 217 220 221 223 223 223 224 224 224 225 223 226 224 224 230 234 237 236 233 233 232 231 232 228 222 221 222 223 218 214 215 214 215 216
315 313 310 309 306 305 302 294 290 292 288 281 281 284 282 278 275 272 268 262 257 253 249 243 239 239 237 233 231 230 231 232 228 222 217 216 215 214 217 216 216 218 216 214 217 221 222 220 215 215 216 216 217 217 217 218 221 223 224 225 226 227 228 229 227 229 227 226 229 230 236 238 233 234 234 231 231 228 222 221 223 224 221 215 213 215 214 213
317 315 312 310 307 306 301 292 290 292 287 282 284 284 281 278 275 272 267 262 259 251 243 239 237 236 233 229 228 227 231 232 228 224 219 217 216 214 216 217 218 220 217 216 220 223 222 220 217 215 214 214 216 218 217 217 221 223 222 223 226 230 232 231 230 230 228 229 229 226 231 238 236 233 233 231 231 229 222 220 223 224 223 219 215 215 211 209
318 316 314 311 308 306 300 293 292 290 285 283 285 282 279 276 273 270 263 260 258 246 237 236 235 234 230 227 223 222 230 231 224 223 220 216 215 216 218 218 218 220 218 216 221 222 220 218 216 214 214 214 216 218 216 215 219 222 220 220 223 227 230 230 231 232 232 234 236 231 231 238 239 235 232 228 229 229 220 216 221 222 221 220 218 216 213 209
317 316 314 312 309 304 297 293 291 288 285 285 285 281 277 274 269 264 259 257 252 239 236 236 234 234 230 225 221 222 230 229 221 222 219 216 215 215 219 220 218 220 217 217 221 220 217 217 215 213 214 216 217 217 215 214 219 222 220 220 221 224 227 229 231 234 235 237 238 234 232 238 241 236 233 230 228 225 217 214 220 220 219 220 219 217 214 212
317 315 314 312 309 303 295 291 288 286 286 286 284 281 277 271 264 258 253 251 247 242 242 237 232 232 228 225 223 224 229 228 226 222 215 215 217 216 220 221 220 221 219 221 223 220 218 218 217 215 216 218 217 216 215 215 219 220 219 221 221 222 224 226 229 232 235 237 236 233 231 237 242 235 230 230 228 223 218 220 223 219 217 219 220 216 212 211
317 315 314 312 309 303 296 289 286 286 288 285 283 281 275 267 258 251 247 246 246 245 242 235 232 230 226 226 226 224 225 227 228 221 214 215 216 217 221 221 221 223 222 223 224 222 220 218 218 218 217 217 217 216 216 217 217 216 218 219 219 221 223 225 228 230 234 237 236 233 232 236 242 236 228 228 227 225 224 225 221 217 216 217 219 217 210 209
319 317 315 313 309 304 298 291 288 288 286 283 282 278 271 261 253 247 245 246 247 246 240 233 232 230 225 226 227 223 222 225 225 217 214 214 214 215 218 218 219 221 221 222 222 222 221 218 218 219 216 215 216 216 215 216 214 213 215 215 216 219 221 224 225 226 233 238 235 233 233 236 240 236 231 231 228 226 228 225 218 217 218 217 219 217 210 207
321 318 316 313 309 305 299 293 291 288 284 281 278 272 265 256 249 244 246 249 247 244 241 237 238 238 233 231 230 224 221 223 223 218 215 215 214 215 216 216 215 216 219 220 218 219 221 220 219 217 215 213 215 215 213 212 212 211 213 212 213 214 215 219 221 223 233 238 235 232 229 233 238 237 234 235 231 226 227 225 219 218 218 215 215 215 210 207
322 320 317 314 311 306 300 295 292 287 283 280 272 265 258 253 247 245 246 248 247 248 246 245 248 247 241 236 234 228 223 222 221 220 217 216 217 217 217 217 216 216 219 218 216 217 219 220 218 214 213 212 213 213 210 210 210 210 211 210 211 213 213 217 221 225 233 236 233 230 227 231 238 237 234 234 232 229 227 225 221 220 217 212 211 211 210 208
323 321 318 316 312 308 303 298 292 286 282 276 268 261 253 249 248 248 246 247 252 253 250 251 253 249 242 237 233 227 224 222 219 218 217 216 218 218 217 217 217 217 219 218 217 216 216 218 217 214 213 212 213 215 213 210 211 211 212 212 214 217 219 221 223 226 232 233 228 224 226 231 234 235 234 231 229 228 228 224 220 218 215 210 208 211 214 211
324 322 320 317 316 314 309 300 292 286 279 272 265 258 251 248 247 245 245 251 255 254 254 254 251 246 241 235 232 228 225 223 218 217 218 217 218 219 217 217 216 216 217 218 218 217 218 221 219 216 216 213 212 215 214 212 213 212 213 215 217 218 223 228 229 228 231 234 229 223 226 232 233 234 233 230 225 222 222 221 218 216 214 211 208 211 215 214
326 326 324 323 323 321 315 304 294 285 277 269 262 255 250 249 246 243 248 255 255 255 257 251 243 241 238 232 229 226 223 224 220 217 219 219 220 220 219 218 217 216 216 217 218 217 220 223 219 214 215 215 213 213 213 214 214 212 213 217 218 218 224 231 233 232 233 235 233 226 225 227 230 230 226 225 226 221 218 218 217 215 213 211 209 209 213 214
330 329 328 328 330 328 322 310 298 286 275 267 260 255 252 249 248 249 252 254 254 253 251 242 236 239 237 229 225 222 219 221 221 218 218 218 219 220 220 218 216 217 217 218 220 221 221 223 219 212 211 213 213 212 214 216 215 213 214 216 216 218 224 230 232 230 230 233 234 229 227 224 224 227 223 222 225 222 217 216 216 214 212 212 211 210 211 213
332 329 329 332 334 334 329 318 303 288 276 268 262 258 255 251 251 253 253 254 252 249 244 236 234 239 236 230 226 222 218 217 218 219 218 216 217 219 219 216 214 216 217 217 220 222 221 223 219 211 209 209 210 212 215 216 216 218 218 214 213 217 220 221 226 228 226 229 232 230 231 230 226 225 223 220 220 219 215 212 214 214 213 213 212 210 209 210
333 332 334 338 338 337 334 325 310 292 276 269 263 258 258 256 254 256 256 255 250 246 241 236 234 236 235 234 232 227 222 219 221 221 218 216 217 217 216 215 214 215 215 216 218 219 219 221 218 209 206 205 207 212 214 213 214 218 220 215 215 219 219 218 222 226 226 229 230 228 231 234 232 227 224 219 214 215 213 210 212 212 210 210 210 209 207 208
335 335 337 341 342 341 339 331 318 303 284 275 268 262 265 265 262 261 259 255 249 243 238 235 235 234 234 235 235 231 227 224 225 224 218 214 214 214 215 217 218 217 216 216 214 215 218 219 215 206 203 205 210 214 215 212 210 213 217 216 214 216 219 220 222 222 224 228 228 227 228 229 228 222 219 217 212 212 213 211 212 213 210 208 208 208 207 208
335 335 336 342 343 342 343 341 334 322 301 289 280 272 272 271 267 265 262 257 250 242 238 236 234 232 233 234 232 231 230 225 223 223 219 214 214 216 217 219 221 219 218 216 211 212 217 218 214 208 207 211 214 214 215 214 212 212 216 217 215 214 215 220 221 219 222 226 226 229 230 223 213 210 212 215 213 211 211 211 211 212 212 210 208 208 207 208
336 335 335 341 343 343 345 347 343 332 313 302 294 284 280 276 272 269 266 262 253 246 241 236 233 231 231 231 230 231 232 227 222 222 221 219 218 220 220 221 223 221 218 216 212 211 216 218 215 213 213 215 215 213 214 215 214 214 216 217 217 215 215 219 221 218 218 222 224 227 228 220 203 198 200 205 209 209 209 210 210 209 209 209 208 208 208 208
337 335 334 340 342 342 345 347 345 339 325 314 303 292 287 281 277 274 270 266 256 247 241 235 232 231 229 229 230 231 231 229 224 222 223 224 220 221 224 222 223 221 216 214 211 211 215 217 216 215 215 214 213 211 212 213 214 215 215 216 217 217 216 219 222 220 217 218 218 219 223 217 198 193 200 204 210 213 212 211 210 207 206 206 206 206 207 207
335 333 333 338 340 341 344 346 345 342 334 323 311 300 294 287 282 279 276 272 261 250 243 237 232 229 228 229 230 229 228 225 223 222 224 226 221 222 224 221 220 218 212 210 210 210 213 214 213 214 213 209 208 209 209 210 214 216 215 215 217 217 216 218 220 221 220 217 212 213 220 216 204 202 212 215 215 216 212 207 204 202 201 200 201 202 203 204
335 334 334 337 339 340 342 343 342 341 338 330 319 309 300 292 289 286 282 275 266 257 249 240 234 230 229 229 228 228 225 222 222 223 224 225 223 222 221 219 219 218 213 214 215 214 214 213 211 212 212 208 208 210 210 209 211 216 215 213 214 216 216 216 217 220 220 216 213 214 213 205 201 204 209 212 214 211 205 202 199 197 195 194 196 200 204 206
335 335 334 336 338 337 339 340 338 338 339 335 326 316 306 299 297 294 287 277 270 265 255 245 238 232 228 228 229 227 224 224 225 224 224 225 225 222 219 218 219 219 218 220 218 215 215 214 214 214 215 214 214 217 218 213 211 214 215 213 213 214 215 216 217 220 219 215 216 216 211 204 200 202 207 207 204 201 197 196 194 193 195 196 199 205 208 209
335 335 335 336 335 333 335 337 335 335 337 335 330 321 312 306 303 299 293 284 277 269 258 247 239 233 228 228 229 225 224 226 227 226 226 226 225 224 220 217 217 218 220 219 215 214 216 216 215 216 218 220 220 222 223 217 213 214 215 214 213 213 214 216 218 218 216 216 218 214 213 216 205 196 202 199 190 188 188 188 188 191 198 202 204 207 208 207
335 334 335 334 330 328 330 331 330 329 330 330 329 324 316 312 309 304 301 293 284 273 259 247 240 235 231 228 227 224 223 223 222 222 225 223 223 223 217 212 212 214 217 216 214 215 216 216 216 217 219 221 222 224 225 220 216 218 218 216 214 213 214 216 218 218 215 218 219 211 211 217 212 193 189 189 186 183 181 182 187 190 195 200 204 208 209 205
334 332 333 333 327 324 324 325 324 323 325 328 328 324 318 317 314 309 306 298 289 279 263 251 244 240 234 228 226 223 221 220 218 220 223 221 220 219 215 211 211 213 215 215 214 214 214 214 217 217 218 221 222 222 224 221 220 222 222 217 214 214 215 216 218 218 217 219 219 212 209 214 215 208 194 190 195 196 195 199 200 197 203 210 211 213 213 207
333 332 332 331 327 323 322 322 320 319 322 324 324 323 321 320 318 314 310 303 294 284 267 256 252 248 238 230 227 224 222 221 221 221 223 222 219 216 214 213 213 214 215 214 214 214 212 213 217 218 218 219 219 219 221 221 221 221 221 218 215 215 215 216 217 217 217 218 217 214 211 211 213 214 211 206 208 213 216 220 219 216 222 226 220 218 217 212
330 330 329 329 328 325 322 322 319 317 320 321 321 324 322 319 319 317 311 305 297 287 275 266 262 253 240 232 230 228 225 223 222 223 224 224 223 219 217 216 217 218 216 214 214 213 212 215 216 216 217 218 217 217 219 221 223 222 220 218 217 216 216 215 216 216 216 217 217 216 216 214 211 214 217 219 220 223 224 225 225 227 229 228 223 222 221 218
326 327 328 327 326 324 322 321 317 314 317 320 320 320 317 314 316 316 311 305 294 285 281 275 267 255 242 235 232 230 227 224 224 225 225 225 225 223 221 220 221 220 216 215 215 212 212 215 214 214 217 218 217 217 218 221 223 223 220 218 216 217 217 216 216 216 216 217 216 216 217 216 212 214 218 220 221 224 226 227 228 230 230 229 228 227 225 223